Tracking 30264 objects as of 15-Feb-2025
HD Live streaming from Space Station
objects crossing your sky now

STARLINK-32668

Track STARLINK-32668 now!
10-day predictions
STARLINK-32668 is classified as:


NORAD ID: 62212
Int'l Code: 2024-229W
Perigee: 475.5 km
Apogee: 477.9 km
Inclination: 43.0 °
Period: 94.0 minutes
Semi major axis: 6847 km
RCS: Unknown
Launch date: December 4, 2024
Source: United States (US)
Launch site: AIR FORCE EASTERN TEST RANGE (AFETR)
Your satellite tracking list
Your tracking list is empty




NASA's NSSDC Master Catalog

Two Line Element Set (TLE):
1 62212U 24229W   25046.69007748  .00001123  00000-0  44193-4 0  9992
2 62212  43.0032 297.2476 0001745 255.6839 104.3821 15.32103618 12393
Source of the keplerian elements: AFSPC